This demonstration page uses our WeatherBlox Daily Observations layout. Learn more.

Left ArrowRight Arrow

40.92945, -100.16068

Hourly Observations for September 17, 2019

Temp ( °F °C ) Dew Point ( °F °C ) Humidity (%) Winds ( mph kmh ) Pressure ( in mb ) Visibility ( mi km ) Precip ( " mm )
12:15 am 00:15 Clear 74 23.6 61 16.1 63 63 S 15 24 29.78 1009 7 11 0.00 0.00
12:35 am 00:35 Clear 75 23.7 61 16.1 63 63 S 16 26 29.78 1009 7 11 0.00 0.00
12:55 am 00:55 Clear 74 23.6 61 16.2 63 63 S 17 28 29.78 1009 7 11 0.00 0.00
1:15 am 01:15 Clear 75 23.7 61 16.1 63 63 S 15 24 29.78 1009 7 11 0.00 0.00
1:35 am 01:35 Clear 74 23.5 61 16.1 63 63 S 16 26 29.78 1009 7 11 0.00 0.00
1:55 am 01:55 Clear 74 23.3 61 16 64 64 SSE 15 24 29.78 1009 7 11 0.00 0.00
2:15 am 02:15 Clear 73 22.9 61 16.1 66 66 SSE 13 20 29.79 1009 7 11 0.00 0.00
2:35 am 02:35 Clear 72 22.1 61 16.2 69 69 SSE 13 20 29.79 1009 7 11 0.00 0.00
2:55 am 02:55 Clear 71 21.9 62 16.4 71 71 SSE 12 19 29.80 1009 7 11 0.00 0.00
3:15 am 03:15 Clear 71 21.8 62 16.6 72 72 SSE 14 22 29.80 1009 7 11 0.00 0.00
3:35 am 03:35 Clear 71 21.5 62 16.7 74 74 SSE 12 19 29.80 1009 10 16 0.00 0.00
3:55 am 03:55 Clear 71 21.5 63 17 76 76 SSE 13 20 29.80 1009 10 16 0.00 0.00
4:15 am 04:15 Clear 71 21.8 63 17 74 74 S 15 24 29.79 1009 10 16 0.00 0.00
4:35 am 04:35 Clear 72 22 63 17 73 73 S 17 28 29.79 1009 10 16 0.00 0.00
4:55 am 04:55 Clear 72 22 63 17.1 74 74 S 18 30 29.79 1009 10 16 0.00 0.00
5:15 am 05:15 Clear 71 21.6 63 17.2 76 76 S 17 28 29.79 1009 10 16 0.00 0.00
5:35 am 05:35 Clear 71 21.4 63 17.3 78 78 S 16 26 29.79 1009 10 16 0.00 0.00
5:55 am 05:55 Clear 70 21.1 63 17.3 79 79 S 16 26 29.79 1009 10 16 0.00 0.00
6:15 am 06:15 Clear 70 21 64 17.5 81 81 S 17 28 29.79 1009 10 16 0.00 0.00
6:35 am 06:35 Clear 70 21 64 17.5 81 81 S 17 28 29.79 1009 10 16 0.00 0.00
6:55 am 06:55 Clear 70 20.9 64 17.5 81 81 SSE 18 30 29.79 1009 10 16 0.00 0.00
7:15 am 07:15 Clear 69 20.7 64 17.5 82 82 S 17 28 29.80 1009 10 16 0.00 0.00
7:35 am 07:35 Partly Cloudy 70 20.9 64 17.6 82 82 S 16 26 29.79 1009 10 16 0.00 0.00
7:55 am 07:55 Partly Cloudy 70 21 64 17.7 82 82 S 18 30 29.79 1009 10 16 0.00 0.00
8:15 am 08:15 Sunny 70 21.3 64 17.7 80 80 S 16 26 29.79 1009 10 16 0.00 0.00
8:35 am 08:35 Sunny 71 21.8 64 17.8 78 78 S 17 28 29.79 1009 10 16 0.00 0.00
8:55 am 08:55 Sunny 73 22.5 64 18 76 76 S 17 28 29.78 1009 10 16 0.00 0.00
9:15 am 09:15 Sunny 74 23.3 64 17.9 72 72 S 18 30 29.77 1008 10 16 0.00 0.00
9:35 am 09:35 Sunny 75 24 64 17.8 68 68 S 23 37 29.76 1008 10 16 0.00 0.00
9:55 am 09:55 Sunny 76 24.7 64 18 66 66 S 23 37 29.75 1008 10 16 0.00 0.00
10:15 am 10:15 Sunny 77 25.2 64 18 64 64 S 21 33 29.76 1008 10 16 0.00 0.00
10:35 am 10:35 Sunny 79 26.2 65 18.1 61 61 S 23 37 29.74 1007 10 16 0.00 0.00
10:55 am 10:55 Sunny 80 26.9 64 18 58 58 S 21 33 29.73 1007 10 16 0.00 0.00
11:15 am 11:15 Sunny 82 27.7 64 17.9 55 55 S 23 37 29.73 1007 10 16 0.00 0.00
11:35 am 11:35 Sunny 82 28 64 17.6 53 53 S 25 41 29.72 1006 10 16 0.00 0.00
11:55 am 11:55 Sunny 84 28.9 64 17.6 50 50 S 24 39 29.71 1006 10 16 0.00 0.00
12:15 pm 12:15 Sunny 85 29.7 64 18 49 49 S 20 31 29.69 1005 10 16 0.00 0.00
12:35 pm 12:35 Sunny 86 30.2 64 17.7 47 47 S 23 37 29.68 1005 10 16 0.00 0.00
12:55 pm 12:55 Sunny 87 30.8 64 17.9 46 46 S 21 33 29.67 1005 10 16 0.00 0.00
1:15 pm 13:15 Sunny 88 31.3 64 17.7 44 44 S 21 33 29.66 1004 10 16 0.00 0.00
1:35 pm 13:35 Sunny 88 31.1 64 17.5 44 44 S 23 37 29.65 1004 10 16 0.00 0.00
1:55 pm 13:55 Partly Cloudy 90 32 63 17.3 41 41 S 29 46 29.63 1004 10 16 0.00 0.00
2:15 pm 14:15 Partly Cloudy 89 31.8 63 17.3 42 42 S 29 46 29.63 1003 10 16 0.00 0.00
2:35 pm 14:35 Sunny 90 32.4 63 17.3 40 40 SSE 24 39 29.61 1003 10 16 0.00 0.00
2:55 pm 14:55 undefined N/A N/A N/A undefined N/A N/A N/A 0.00 0.00
3:15 pm 15:15 Sunny 89 31.8 62 16.6 40 40 S 26 43 29.61 1003 N/A 0.00 0.00
3:35 pm 15:35 Sunny 89 31.7 62 16.5 40 40 S 28 44 29.61 1003 7 11 0.00 0.00
3:55 pm 15:55 Sunny 91 32.9 62 16.9 38 38 S 30 48 29.59 1002 10 16 0.00 0.00
4:15 pm 16:15 Sunny 91 33 62 16.7 38 38 S 30 48 29.58 1002 10 16 0.00 0.00
4:35 pm 16:35 Sunny 92 33.2 62 16.9 38 38 S 28 44 29.58 1002 7 11 0.00 0.00
4:55 pm 16:55 Sunny 91 33 62 16.6 37 37 S 25 41 29.57 1001 7 11 0.00 0.00
5:15 pm 17:15 Sunny 89 31.7 61 16.3 40 40 S 21 33 29.58 1002 7 11 0.00 0.00
5:35 pm 17:35 Sunny 91 32.5 61 16.3 38 38 S 21 33 29.57 1001 7 11 0.00 0.00
5:55 pm 17:55 Sunny 91 32.5 62 16.4 38 38 S 20 31 29.57 1001 7 11 0.00 0.00
6:15 pm 18:15 Sunny 89 31.6 62 16.5 40 40 S 17 28 29.58 1002 7 11 0.00 0.00
6:35 pm 18:35 Sunny 88 30.9 62 16.5 42 42 S 18 30 29.58 1002 7 11 0.00 0.00
6:55 pm 18:55 Sunny 87 30.4 62 16.4 43 43 S 18 30 29.59 1002 7 11 0.00 0.00
7:15 pm 19:15 Sunny 85 29.5 62 16.6 46 46 SSE 20 31 29.59 1002 7 11 0.00 0.00
7:35 pm 19:35 Hazy 84 28.8 62 16.8 48 48 SSE 16 26 29.61 1003 5 8 0.00 0.00
7:55 pm 19:55 Clear 82 27.8 62 16.9 52 52 SSE 18 30 29.62 1003 7 11 0.00 0.00
8:15 pm 20:15 Clear 82 27.7 62 16.5 51 51 S 17 28 29.63 1003 7 11 0.00 0.00
8:35 pm 20:35 Clear 81 27.2 62 16.6 52 52 SSE 18 30 29.63 1003 7 11 0.00 0.00
8:55 pm 20:55 Clear 80 26.7 62 16.6 54 54 SSE 17 28 29.65 1004 7 11 0.00 0.00
9:15 pm 21:15 Clear 80 26.7 62 16.5 54 54 SSE 20 31 29.65 1004 7 11 0.00 0.00
9:35 pm 21:35 Clear 79 26.2 62 16.5 55 55 SSE 17 28 29.66 1004 10 16 0.00 0.00
9:55 pm 21:55 Clear 79 26 62 16.7 57 57 SSE 22 35 29.67 1005 7 11 0.00 0.00
10:15 pm 22:15 Clear 78 25.7 62 16.7 58 58 SSE 21 33 29.67 1005 7 11 0.00 0.00
10:35 pm 22:35 Clear 78 25.3 62 16.7 59 59 S 18 30 29.69 1005 7 11 0.00 0.00
10:55 pm 22:55 Clear 77 25 62 16.8 60 60 S 16 26 29.69 1005 7 11 0.00 0.00
11:15 pm 23:15 Clear 77 25 62 16.7 60 60 S 17 28 29.69 1005 7 11 0.00 0.00
11:35 pm 23:35 Clear 77 24.8 62 16.7 61 61 S 18 30 29.69 1005 7 11 0.00 0.00
11:55 pm 23:55 Clear 77 24.8 62 16.7 61 61 S 17 28 29.69 1005 10 16 0.00 0.00

Powered by AerisWeather